Simultaneous Nadir Overpasses (SNOs) Predictions

Prediction of SNOs between METOP-B and NOAA-19 Satellite Orbit:

Table of predicted SNOs for the next 14.0 days since TLE Epoch: 9/28/2013
Index Date (METOP-B) Time (METOP-B) Lat,Lon (METOP-B) SZA (METOP-B ) Date (NOAA-19) Time (NOAA-19) Lat,Lon (NOAA-19) SZA (NOAA-19 ) Distance(km) Time Diff (sec)
1 10/02/2013 15:08:40 74.06, -52.08 77.78 10/02/2013 15:07:32 74.08, -54.64 77.85 78.23 68
2 10/02/2013 15:59:32 -73.52, 113.97 102.74 10/02/2013 15:58:18 -73.54, 113.94 102.71 2.97 74
3 10/02/2013 16:50:13 73.49, -78.77 77.25 10/02/2013 16:49:24 73.47, -78.68 77.24 3.23 49
4 10/02/2013 17:40:54 -73.50, 88.58 102.73 10/02/2013 17:40:21 -73.48, 88.58 102.75 2.06 33
5 10/02/2013 18:31:35 73.47,-104.15 77.26 10/02/2013 18:31:28 73.46,-104.15 77.25 0.93 7
6 10/02/2013 19:22:16 -73.47, 63.19 102.73 10/02/2013 19:22:25 -73.46, 63.10 102.74 3.14 9
7 10/02/2013 20:12:57 73.44,-129.54 77.26 10/02/2013 20:13:32 73.44,-129.63 77.26 2.82 35
8 10/02/2013 21:03:39 -73.40, 37.69 102.77 10/02/2013 21:04:28 -73.39, 37.74 102.78 1.88 49
9 10/02/2013 21:54:21 73.32,-155.16 77.17 10/02/2013 21:55:35 73.38,-155.00 77.22 7.88 74
10 10/02/2013 22:45:13 -72.78, 11.00 103.34 10/02/2013 22:46:20 -72.78, 13.59 103.38 85.20 67




NCC Satellite Simultaneous Nadir Overpasses (SNOs) Prediction Service
